Location: Prague
(50.0830°N, 14.4670°E)
Time: 08:39:41
(UTC+02:00)

STARLINK-1759 - Pass Details

Date: 22 September 2020
Orbit: 549 x 551 km, 53.0° (Epoch: 24 October)

Event Time Altitude Azimuth Distance (km) Brightness Sun altitude
Exits shadow 04:06:53 61° 15° (NNE) 660 4.1 -25.3°
Drops below altitude 10° 04:10:54 10° 72° (ENE) 1,910 7.3 -24.7°
Enters shadow 05:08:42 -68° 270° (W) 12,408 10.4 -16.5°
Maximum altitude 05:47:01 64° 11° (N) 649 4.1 -10.7°
